Weather History for Stockton, CA

Change the Weather History Date:

Tuesday, October 9, 2012

  Actual Average Record
Temperature  
Mean Temperature 62 °F -  
Max Temperature 77 °F 81 °F 97 °F (1996)
Min Temperature 47 °F 52 °F 42 °F (1961)
Degree Days  
Heating Degree Days 3 1  
Month to date heating degree days 3 9  
Since 1 July heating degree days 3 15  
Cooling Degree Days 0 3  
Month to date cooling degree days 46 32  
Year to date cooling degree days 1340 1298  
Growing Degree Days 12 (Base 50)    
Moisture  
Dew Point 48 °F    
Average Humidity 63    
Maximum Humidity 93    
Minimum Humidity 33    
Precipitation  
Precipitation 0.00 in 0.01 in 0.29 in (1975)
Month to date precipitation 0.01 0.13  
Year to date precipitation 6.49 9.46  
Since 1 July precipitation 0.02 0.43  
Snow  
Snow 0.00 in - 0.00 in (2002)
Month to date snowfall 0.0  
Since 1 July snowfall 0.0  
Since 1 September snowfall 0.0  
Snow Depth -    
Sea Level Pressure  
Sea Level Pressure 29.97 in    
Wind  
Wind Speed 4 mph (NW)    
Max Wind Speed 14 mph    
Max Gust Speed 20 mph    
Visibility 10 miles    
Events      
T = Trace of Precipitation, MM = Missing Value Source: NWS Daily Summary

Daily Weather History Graph

Daily Weather History Graph

Search for Another Location

Airport:

Trip Planner

Search our weather history database for the weather conditions in past years. The results will help you decide how hot, cold, wet, or windy it might be!

Date:

Astronomy

Oct. 09, 2012 Rise Set
Actual Time 7:08 AM PDT 6:35 PM PDT
Civil Twilight 6:41 AM PDT 7:01 PM PDT
Nautical Twilight 6:11 AM PDT 7:31 PM PDT
Astronomical Twilight 5:41 AM PDT 8:02 PM PDT
Moon 12:55 AM PDT (10/9) 3:00 PM PDT (10/9)
Length of Visible Light 12h 19m
Length of Day
11h 26m
Waning Crescent, 35% of the Moon is Illuminated
Oct 9
Waning Crescent
Oct 15
New
Oct 21
First Quarter
Oct 29
Full
Nov 6
Last Quarter

Hourly Weather History & Observations

Time (PDT) Temp. Dew Point Humidity Pressure Visibility Wind Dir Wind Speed Gust Speed Precip Events Conditions
12:55 AM 57.0 °F 50.0 °F 77% 30.01 in 10.0 mi West 5.8 mph - N/A   Clear
1:55 AM 55.9 °F 50.0 °F 80% 30.01 in 10.0 mi Calm Calm - N/A   Clear
2:55 AM 51.1 °F 46.9 °F 86% 30.02 in 10.0 mi Calm Calm - N/A   Clear
3:55 AM 50.0 °F 46.9 °F 89% 30.01 in 10.0 mi Calm Calm - N/A   Clear
4:55 AM 48.9 °F 46.0 °F 90% 30.00 in 10.0 mi Calm Calm - N/A   Clear
5:55 AM 50.0 °F 48.0 °F 93% 30.00 in 8.0 mi Calm Calm - N/A   Clear
6:55 AM 48.0 °F 46.0 °F 93% 30.00 in 9.0 mi Calm Calm - N/A   Clear
7:55 AM 50.0 °F 46.9 °F 89% 30.02 in 8.0 mi Calm Calm - N/A   Clear
8:55 AM 57.9 °F 50.0 °F 75% 30.02 in 10.0 mi ENE 5.8 mph - N/A   Clear
9:55 AM 63.0 °F 50.0 °F 63% 30.02 in 10.0 mi NNW 4.6 mph - N/A   Clear
10:55 AM 64.9 °F 48.0 °F 54% 30.01 in 10.0 mi WNW 3.5 mph - N/A   Clear
11:55 AM 70.0 °F 48.9 °F 47% 29.99 in 10.0 mi NNW 4.6 mph - N/A   Clear
12:55 PM 71.1 °F 48.0 °F 44% 29.97 in 10.0 mi West 8.1 mph - N/A   Clear
1:55 PM 73.9 °F 48.0 °F 40% 29.94 in 10.0 mi Variable 6.9 mph - N/A   Clear
2:55 PM 75.9 °F 45.0 °F 33% 29.93 in 10.0 mi NW 6.9 mph - N/A   Clear
3:55 PM 75.9 °F 44.1 °F 32% 29.92 in 10.0 mi WNW 11.5 mph - N/A   Clear
4:55 PM 75.0 °F 44.1 °F 33% 29.91 in 10.0 mi NW 4.6 mph - N/A   Clear
5:55 PM 73.9 °F 45.0 °F 35% 29.91 in 10.0 mi North 6.9 mph - N/A   Clear
6:55 PM 70.0 °F 44.1 °F 39% 29.91 in 10.0 mi NNW 8.1 mph - N/A   Clear
7:55 PM 68.0 °F 48.0 °F 49% 29.92 in 10.0 mi WNW 8.1 mph - N/A   Clear
8:55 PM 66.0 °F 50.0 °F 56% 29.93 in 10.0 mi WNW 13.8 mph - N/A   Clear
9:55 PM 62.1 °F 51.1 °F 67% 29.93 in 10.0 mi West 8.1 mph - N/A   Clear
10:55 PM 60.1 °F 50.0 °F 69% 29.93 in 9.0 mi NW 6.9 mph - N/A   Clear
11:55 PM 60.1 °F 50.0 °F 69% 29.93 in 10.0 mi WNW 9.2 mph - N/A   Clear